Total_Precipitation_Accumulation
1.02 1.61 1.91 1.77 1.75 1.71 1.50 1.45 1.32 1.13 1.09 1.18 1.11 1.11 1.13 1.14 1.13 1.00 0.87 0.75 0.73 0.72 0.68 0.65 0.63 0.65 0.70 0.78 0.86 1.00 1.15 1.36 1.47 1.52 1.62 1.83 1.97 2.06 2.13 2.17 2.02 1.90 1.86 1.99
1.12 1.44 1.09 0.98 1.18 1.24 1.35 1.38 1.20 1.03 0.87 0.93 0.99 1.02 1.03 0.98 0.96 0.85 0.74 0.68 0.61 0.55 0.53 0.49 0.44 0.47 0.51 0.53 0.60 0.73 0.90 1.02 1.16 1.36 1.65 1.89 2.14 2.15 2.19 2.24 2.22 2.14 2.06 2.18
1.18 1.03 0.72 0.83 1.06 1.11 1.17 1.21 1.09 1.02 0.91 0.84 0.85 1.03 0.99 0.91 0.84 0.77 0.64 0.55 0.47 0.41 0.38 0.32 0.31 0.38 0.44 0.44 0.49 0.61 0.76 0.93 1.17 1.42 1.80 2.09 2.37 2.45 2.50 2.45 2.44 2.41 2.39 2.41
1.06 0.76 0.71 0.88 0.95 0.99 1.13 0.83 0.79 0.82 1.01 1.05 0.86 1.18 0.89 0.75 0.74 0.67 0.59 0.53 0.46 0.40 0.38 0.34 0.31 0.32 0.35 0.41 0.50 0.64 0.87 1.12 1.42 1.76 2.12 2.39 2.67 2.82 2.64 2.63 2.63 2.56 2.44 2.40
0.92 0.71 0.70 0.84 0.70 0.68 0.79 0.67 0.81 0.88 0.93 0.88 0.67 0.85 0.76 0.63 0.72 0.62 0.52 0.50 0.53 0.51 0.42 0.40 0.40 0.41 0.45 0.53 0.63 0.82 1.10 1.43 1.77 2.06 2.25 2.52 2.64 2.66 2.59 2.52 2.51 2.41 2.36 2.30
0.69 0.58 0.61 0.60 0.53 0.55 0.62 0.75 0.90 0.94 1.01 1.05 0.58 0.70 0.80 0.61 0.58 0.57 0.49 0.43 0.43 0.48 0.44 0.44 0.48 0.56 0.64 0.72 0.89 1.10 1.28 1.59 1.80 1.98 2.15 2.35 2.50 2.52 2.47 2.43 2.45 2.44 2.38 2.26
0.64 0.53 0.46 0.41 0.52 0.55 0.64 1.09 1.46 1.47 1.37 1.02 0.49 0.72 0.83 0.61 0.49 0.44 0.45 0.43 0.40 0.43 0.49 0.51 0.63 0.81 0.88 0.93 1.05 1.24 1.33 1.54 1.67 1.76 1.89 2.05 2.10 2.13 2.13 2.12 2.12 2.03 1.97 1.94
0.68 0.64 0.43 0.38 0.49 0.61 0.60 0.91 1.47 1.57 1.32 0.95 0.68 0.98 0.89 0.65 0.51 0.46 0.47 0.46 0.48 0.56 0.67 0.77 0.92 1.02 1.11 1.15 1.14 1.20 1.36 1.40 1.43 1.51 1.53 1.63 1.69 1.74 1.79 1.77 1.77 1.81 1.84 1.85
0.60 0.57 0.36 0.30 0.32 0.48 0.63 0.68 0.75 1.07 0.99 1.01 0.94 1.12 1.04 0.66 0.54 0.52 0.52 0.52 0.57 0.71 0.92 1.17 1.38 1.48 1.55 1.50 1.34 1.22 1.25 1.27 1.26 1.36 1.42 1.46 1.52 1.56 1.58 1.60 1.51 1.62 1.64 1.63
0.48 0.56 0.42 0.32 0.37 0.41 0.53 0.70 0.89 1.30 1.47 1.41 1.23 1.39 1.36 0.90 0.71 0.63 0.65 0.73 0.84 1.04 1.37 1.68 1.95 2.12 2.09 1.88 1.63 1.40 1.24 1.17 1.16 1.21 1.31 1.41 1.44 1.46 1.43 1.47 1.38 1.39 1.48 1.48
0.41 0.58 0.52 0.43 0.46 0.50 0.56 0.76 0.98 1.25 1.28 1.58 1.75 1.73 1.42 1.19 0.98 0.91 0.98 1.16 1.34 1.60 1.84 2.05 2.23 2.34 2.14 1.95 1.67 1.40 1.22 1.22 1.25 1.30 1.36 1.38 1.33 1.33 1.32 1.28 1.23 1.27 1.35 1.34
0.35 0.54 0.59 0.40 0.35 0.41 0.67 0.96 1.23 1.68 1.55 1.44 1.75 1.83 1.30 1.11 1.07 1.09 1.19 1.27 1.41 1.55 1.59 1.73 1.84 1.85 1.89 1.84 1.65 1.45 1.31 1.30 1.35 1.41 1.47 1.41 1.35 1.30 1.28 1.25 1.17 1.15 1.12 1.11
0.48 0.71 0.82 0.74 0.74 0.72 0.82 0.90 1.01 1.23 1.38 1.41 1.74 1.81 1.20 1.02 0.97 1.09 1.25 1.31 1.40 1.43 1.35 1.38 1.44 1.55 1.65 1.67 1.57 1.55 1.49 1.49 1.51 1.49 1.40 1.35 1.28 1.19 1.15 1.07 1.03 1.06 1.06 1.14
0.48 0.72 0.86 0.97 0.91 0.81 0.85 0.84 0.79 0.94 1.31 1.30 1.47 1.48 1.24 1.17 1.07 1.08 1.19 1.29 1.24 1.15 1.08 1.09 1.20 1.32 1.42 1.44 1.47 1.45 1.42 1.46 1.56 1.64 1.55 1.44 1.35 1.25 1.19 1.09 1.00 0.98 1.01 1.11
0.40 0.46 0.44 0.41 0.38 0.48 0.69 0.81 0.79 0.79 0.87 1.15 1.18 1.10 1.07 1.04 1.01 0.93 0.94 0.93 0.85 0.78 0.78 0.82 0.89 0.92 0.92 0.91 1.01 1.08 1.17 1.30 1.45 1.61 1.62 1.50 1.36 1.25 1.18 1.12 1.02 0.98 0.99 1.01
0.34 0.37 0.33 0.33 0.30 0.37 0.53 0.63 0.65 0.61 0.62 0.73 0.84 0.86 0.75 0.72 0.72 0.71 0.72 0.67 0.62 0.58 0.55 0.54 0.55 0.55 0.53 0.52 0.54 0.59 0.72 0.91 1.16 1.41 1.44 1.29 1.15 1.02 0.97 0.99 1.00 0.98 0.95 1.00
0.28 0.35 0.43 0.48 0.39 0.39 0.64 0.63 0.56 0.55 0.48 0.51 0.63 0.65 0.55 0.59 0.64 0.65 0.70 0.70 0.55 0.43 0.41 0.43 0.43 0.41 0.40 0.39 0.39 0.44 0.55 0.72 0.91 1.03 1.04 0.98 0.92 0.91 0.97 1.02 0.98 0.97 0.98 0.98
0.25 0.35 0.48 0.52 0.54 0.79 0.97 0.78 0.64 0.60 0.42 0.37 0.42 0.43 0.45 0.56 0.59 0.59 0.56 0.55 0.54 0.42 0.32 0.31 0.34 0.35 0.39 0.39 0.42 0.47 0.55 0.63 0.72 0.76 0.78 0.76 0.78 0.82 0.90 0.94 0.93 1.00 1.04 0.98
0.27 0.43 0.59 0.64 0.73 0.88 0.88 0.73 0.73 0.74 0.59 0.37 0.39 0.38 0.34 0.34 0.35 0.36 0.36 0.33 0.32 0.29 0.25 0.22 0.23 0.24 0.28 0.30 0.31 0.32 0.34 0.37 0.41 0.45 0.49 0.53 0.57 0.61 0.65 0.69 0.78 0.92 1.00 1.02
0.29 0.40 0.62 0.69 0.79 0.92 0.72 0.44 0.45 0.63 0.79 0.35 0.32 0.31 0.24 0.22 0.31 0.31 0.28 0.29 0.26 0.22 0.24 0.24 0.21 0.21 0.25 0.27 0.29 0.27 0.27 0.28 0.29 0.30 0.34 0.40 0.44 0.47 0.50 0.58 0.66 0.75 0.80 0.89
0.39 0.46 0.54 0.62 0.83 0.97 0.69 0.45 0.43 0.76 0.81 0.32 0.25 0.23 0.21 0.21 0.22 0.21 0.23 0.25 0.23 0.21 0.22 0.25 0.25 0.23 0.25 0.28 0.29 0.29 0.29 0.31 0.34 0.36 0.37 0.39 0.41 0.43 0.49 0.56 0.61 0.68 0.74 0.84
0.44 0.56 0.61 0.73 1.08 1.21 0.87 0.64 0.66 0.63 0.33 0.23 0.19 0.18 0.19 0.19 0.17 0.17 0.20 0.22 0.20 0.19 0.20 0.22 0.24 0.26 0.28 0.28 0.29 0.30 0.30 0.32 0.37 0.39 0.41 0.42 0.43 0.47 0.51 0.57 0.63 0.67 0.72 0.75
0.41 0.48 0.57 0.73 0.98 0.92 0.75 0.62 0.49 0.40 0.30 0.21 0.18 0.17 0.20 0.20 0.20 0.22 0.22 0.20 0.20 0.20 0.19 0.20 0.22 0.23 0.24 0.26 0.27 0.29 0.34 0.37 0.39 0.40 0.42 0.45 0.46 0.48 0.49 0.54 0.61 0.66 0.68 0.71
0.34 0.32 0.41 0.48 0.52 0.46 0.41 0.38 0.30 0.26 0.25 0.21 0.20 0.22 0.24 0.25 0.24 0.22 0.22 0.22 0.21 0.20 0.19 0.18 0.21 0.24 0.24 0.26 0.28 0.34 0.37 0.37 0.37 0.41 0.44 0.44 0.45 0.46 0.49 0.52 0.57 0.62 0.66 0.68
0.31 0.34 0.39 0.42 0.36 0.31 0.28 0.28 0.25 0.20 0.18 0.17 0.20 0.23 0.25 0.25 0.25 0.23 0.22 0.24 0.23 0.21 0.21 0.24 0.27 0.29 0.29 0.31 0.34 0.40 0.44 0.41 0.38 0.39 0.41 0.41 0.43 0.47 0.49 0.50 0.53 0.55 0.60 0.72
0.22 0.30 0.42 0.43 0.31 0.32 0.32 0.26 0.21 0.19 0.17 0.16 0.18 0.18 0.20 0.22 0.24 0.25 0.22 0.23 0.25 0.25 0.27 0.29 0.31 0.34 0.35 0.34 0.37 0.40 0.44 0.46 0.45 0.45 0.42 0.40 0.41 0.44 0.47 0.49 0.49 0.53 0.56 0.66